Theta_e
303 303 303 303 303 303 304 304 304 305 305 305 303 299 296 296 297 298 299 299 300 301 302 303 303 303 303 303 304 305 303 300 301 302 304 307 308 309 310 310 309 306 305 305 306 305 305 305 304 304 305 307 306 307 306 306 317 326 328 328 328 324 317 314 312 309 310 312 309 308 309 310 313 309 309 312 312 318 318 315 315 317 327 338 339 338 341 340
303 302 302 303 303 303 303 304 304 304 304 303 301 297 295 296 297 298 299 300 300 301 302 303 303 302 302 303 303 304 304 301 301 301 302 307 308 308 309 309 308 306 305 305 305 305 305 305 304 304 306 306 304 305 304 304 312 316 320 327 322 313 309 307 308 308 309 310 309 309 309 310 311 309 309 311 311 315 313 310 311 312 316 332 340 337 339 339
302 302 302 302 303 303 303 303 304 304 303 302 299 296 296 297 298 298 299 301 301 302 303 303 303 302 301 302 303 304 305 302 300 301 302 306 308 308 309 308 306 305 305 305 305 304 305 305 303 305 307 305 303 304 303 304 308 310 314 320 312 305 305 305 307 308 308 309 309 309 309 310 310 309 310 309 312 316 311 309 310 311 310 323 337 332 332 337
302 302 302 302 302 303 303 303 304 304 302 301 298 296 296 297 298 298 300 302 302 303 303 304 305 302 302 304 304 304 305 302 300 301 302 305 307 307 308 307 305 306 305 303 303 303 303 304 303 306 306 304 304 304 304 304 304 307 310 308 304 304 305 304 307 307 307 308 308 308 309 310 309 309 309 309 313 315 310 309 309 310 309 314 333 332 329 333
302 302 302 302 302 303 303 304 304 303 302 300 297 296 297 298 298 299 300 302 302 302 302 304 305 302 301 305 305 304 305 303 300 301 302 304 305 306 307 306 305 305 304 302 302 302 303 303 306 310 307 304 306 306 304 303 303 307 307 303 302 304 305 304 306 307 307 307 307 308 309 309 309 308 309 310 311 312 310 309 308 310 309 312 331 335 330 334
302 302 302 302 302 302 303 303 304 303 301 298 296 296 298 298 298 299 301 301 300 300 300 301 304 304 301 301 303 303 303 302 300 301 302 302 304 305 306 305 305 305 303 302 303 304 304 303 308 311 308 306 306 306 304 303 304 307 306 303 304 304 305 305 304 305 306 306 306 307 308 307 308 307 308 309 307 309 309 309 309 309 309 309 325 335 334 337
302 302 302 302 300 300 302 302 302 302 299 296 296 297 298 298 298 300 300 300 299 298 299 298 301 304 304 302 300 300 302 301 300 302 302 302 304 305 305 305 304 304 303 304 304 305 306 305 307 309 310 309 306 305 305 304 305 306 306 305 304 304 305 305 303 304 304 305 306 307 308 306 307 307 307 308 305 306 308 307 307 306 306 306 315 330 337 338
302 301 300 300 297 296 299 299 299 298 297 296 297 298 298 298 298 300 300 300 300 300 300 299 299 300 303 305 301 299 301 301 301 302 301 302 304 305 305 305 305 304 304 305 305 305 307 306 307 308 310 310 306 305 305 306 307 306 306 305 304 304 304 304 303 304 303 304 306 306 307 306 306 306 306 308 307 307 307 305 306 304 305 305 309 320 328 333
302 300 298 299 296 295 297 296 296 296 296 296 297 298 298 298 298 300 301 301 302 302 302 301 300 299 300 302 301 300 300 300 301 301 301 302 304 305 305 306 306 304 304 305 305 305 306 307 308 308 308 309 306 305 306 307 307 306 306 305 304 304 303 303 304 303 303 302 304 305 307 308 307 307 310 311 308 308 307 307 308 306 306 305 308 313 315 322
302 300 297 297 295 296 297 296 297 296 296 297 297 299 299 298 298 299 300 301 302 303 303 302 300 300 299 299 300 300 300 301 301 301 301 302 304 305 305 306 306 305 305 305 305 305 306 306 306 306 307 309 307 306 307 307 306 306 305 305 306 305 303 303 303 302 302 302 303 306 308 310 310 309 312 313 309 308 308 308 308 307 307 305 306 310 311 316
301 298 296 296 295 296 297 297 297 297 297 297 298 299 299 299 299 299 300 301 302 303 303 302 301 300 300 299 300 301 300 301 301 300 301 302 304 305 305 306 306 305 306 305 306 306 306 306 305 306 307 308 307 307 307 306 305 306 306 307 307 305 303 302 302 302 301 303 305 307 310 313 313 310 311 311 308 308 308 308 308 307 307 306 305 308 310 313
300 297 295 295 295 296 297 298 298 298 297 297 298 298 299 299 299 300 300 301 302 302 303 303 301 300 300 299 300 300 300 300 300 300 301 302 304 305 305 306 306 306 306 306 306 306 306 305 306 309 308 307 308 308 308 307 306 306 306 307 306 304 304 302 302 302 302 303 303 306 312 314 312 310 309 308 307 307 308 308 308 307 307 306 305 306 308 311
299 296 296 295 295 297 298 298 299 298 298 298 298 298 298 299 299 300 300 300 301 301 303 303 301 300 301 301 300 299 300 300 300 301 302 303 304 304 304 305 306 306 306 306 306 306 307 306 307 309 307 306 308 307 306 306 306 306 306 305 304 306 306 303 302 303 303 304 302 306 314 312 309 308 307 306 306 308 308 307 307 306 305 304 304 306 308 309
298 296 296 295 296 297 298 299 300 300 299 299 299 299 298 298 299 300 300 301 301 301 302 302 301 299 302 302 300 299 299 299 300 301 301 302 304 304 304 305 306 306 306 306 307 307 307 306 307 307 306 306 307 306 307 306 304 305 307 305 303 307 307 303 303 303 305 305 303 309 313 309 306 306 305 305 308 308 308 308 307 306 304 304 307 308 308 307
298 296 296 295 296 297 298 300 300 300 299 299 300 299 299 299 299 300 301 300 300 301 301 302 301 300 302 303 300 299 299 299 300 300 300 302 303 303 304 305 305 305 306 306 307 307 307 307 307 306 306 306 305 308 309 306 304 305 307 307 304 305 305 303 303 303 305 305 303 307 308 305 305 305 306 306 308 308 307 307 307 306 305 305 307 307 306 305
297 296 296 296 296 297 299 299 299 299 299 299 300 300 300 299 299 300 300 300 300 300 301 301 300 300 302 301 299 299 299 300 300 300 300 301 302 302 304 304 304 305 306 306 306 306 306 307 307 306 306 305 304 307 307 304 305 304 305 306 305 305 305 304 304 303 305 305 303 304 305 304 305 305 305 305 305 306 306 305 305 305 305 305 305 305 304 303
297 296 296 296 296 297 298 299 299 299 299 299 300 300 300 299 300 300 301 302 302 301 300 300 299 301 302 299 299 301 300 300 300 299 300 301 302 302 303 305 304 303 305 306 304 303 303 305 306 306 305 305 304 305 306 305 305 305 304 305 304 305 305 306 305 303 304 304 303 304 304 304 304 304 304 304 304 304 304 304 303 303 303 303 303 303 302 302
296 296 297 297 296 297 298 298 299 299 299 299 299 300 301 300 299 300 301 302 303 302 301 299 300 303 302 300 300 300 300 300 299 299 299 300 302 302 303 304 302 302 307 308 303 302 303 303 304 304 303 303 304 304 306 306 305 305 305 305 305 304 305 306 305 304 305 304 304 305 305 304 303 303 303 303 303 303 303 303 302 301 301 301 301 300 300 300
295 296 297 297 296 296 297 297 298 299 298 298 298 299 301 302 301 300 299 299 300 301 300 299 300 301 299 298 299 299 299 300 299 299 299 299 301 302 302 302 301 302 307 309 306 304 302 301 303 303 302 303 304 304 305 305 304 306 305 304 306 305 306 306 304 305 305 305 305 305 305 304 303 303 303 303 303 303 302 301 300 299 298 298 298 298 298 298
295 296 297 297 297 297 297 297 297 297 297 298 296 298 305 309 308 304 301 300 299 298 299 299 300 300 299 299 299 299 300 300 299 298 299 298 300 303 302 302 303 302 304 305 306 305 302 300 302 303 302 302 304 305 305 305 304 305 305 304 305 305 306 306 303 305 306 305 304 304 304 304 303 302 302 303 302 302 302 300 299 298 297 297 297 297 297 296
295 296 297 297 298 297 297 297 297 297 297 297 296 302 308 309 309 305 302 302 300 299 300 298 298 300 299 300 299 299 301 302 299 298 299 298 299 304 303 302 305 303 303 304 306 305 301 300 302 302 302 303 304 306 305 305 306 305 305 305 305 305 306 305 304 306 307 305 304 303 304 304 303 302 302 302 302 302 301 300 299 298 297 297 297 297 296 296
295 295 296 297 298 298 298 297 298 298 298 297 299 303 302 302 303 302 302 303 300 299 301 298 298 299 298 299 299 299 301 302 300 298 298 297 299 304 304 302 304 303 303 304 304 303 300 300 303 302 302 303 304 306 304 303 306 306 305 306 306 306 307 306 305 306 306 305 304 303 303 303 303 302 302 302 302 301 301 300 299 298 297 297 297 297 296 296
295 295 296 297 298 298 299 298 297 298 299 299 301 300 300 300 301 300 302 304 300 298 302 302 299 298 300 300 298 299 301 300 300 299 298 298 298 301 304 304 303 302 303 303 301 301 300 301 302 302 302 302 302 303 302 301 303 304 305 307 307 307 308 308 307 306 306 306 304 303 303 303 303 302 302 302 302 301 300 301 300 299 298 297 297 296 296 296
295 295 296 297 298 298 299 299 298 298 299 300 300 299 300 300 301 301 302 303 301 299 300 301 299 298 300 300 298 300 304 301 298 298 297 297 297 300 304 303 303 303 302 304 303 302 301 300 302 302 301 301 300 301 301 301 302 303 306 308 306 306 307 308 308 307 307 307 305 305 304 303 302 302 302 302 303 301 300 301 301 300 298 297 297 296 296 296
295 295 295 297 298 298 299 299 299 299 298 298 299 299 299 299 301 302 303 305 303 299 298 299 299 298 298 298 298 298 301 300 297 297 298 297 297 302 304 301 301 303 302 304 306 304 301 300 302 302 300 300 300 300 300 300 302 303 306 307 305 306 307 307 308 308 308 307 305 307 306 304 303 302 302 301 302 302 300 300 300 300 298 297 296 296 296 296
295 296 296 297 298 299 299 298 298 299 299 298 298 298 298 299 301 300 304 310 304 297 299 299 299 299 298 298 297 297 301 301 297 296 297 296 296 300 302 299 300 301 301 304 305 302 302 302 303 302 299 300 299 300 299 299 302 304 303 304 303 306 307 307 309 308 308 306 304 306 306 304 303 302 301 301 300 301 300 300 299 299 298 297 296 295 295 295
295 297 297 297 297 298 300 299 297 298 300 299 297 298 297 299 300 297 304 314 304 297 300 300 299 299 299 297 296 299 302 300 297 297 297 295 295 299 300 298 300 300 298 303 305 300 301 303 305 302 299 301 300 300 299 298 302 305 301 301 303 305 306 307 308 306 305 305 304 305 305 303 302 301 300 300 300 301 300 299 298 298 298 297 297 296 295 295
296 298 299 299 298 297 297 297 296 297 299 298 296 297 298 299 299 300 309 310 301 298 299 300 300 299 297 296 297 300 301 299 298 298 296 294 294 298 299 296 297 299 298 303 305 300 301 301 302 302 300 300 300 299 300 298 302 305 302 302 304 306 307 308 308 305 305 306 305 306 305 303 302 301 299 299 300 301 300 300 299 297 297 297 297 297 295 295
295 297 298 299 299 298 296 296 297 297 297 297 297 297 299 298 298 305 315 306 298 298 298 298 299 299 299 300 301 301 301 299 298 297 297 294 293 296 298 293 295 300 299 301 301 298 299 300 300 301 300 299 299 299 300 299 301 302 301 302 305 306 307 308 309 307 306 306 304 304 305 304 302 301 299 299 300 300 301 300 299 298 297 296 296 296 295 295
295 295 295 296 296 297 297 296 295 296 296 296 297 297 298 299 304 314 313 302 297 297 297 299 299 298 299 302 303 300 299 299 298 297 297 295 292 294 295 293 296 300 297 297 299 295 298 302 300 301 301 299 299 300 300 299 300 300 301 304 307 306 306 307 307 306 308 308 304 302 302 304 303 301 299 299 299 299 300 299 298 298 298 297 296 295 294 293
295 294 294 295 294 295 296 295 295 295 295 296 296 298 299 302 312 317 303 297 298 299 298 300 300 299 299 300 300 298 299 299 297 297 297 295 293 292 293 293 296 301 299 297 299 298 301 303 298 299 301 298 299 299 298 299 300 298 300 304 308 307 308 310 309 307 309 309 306 302 301 303 305 302 300 299 298 297 298 299 298 298 298 298 297 296 295 294
295 294 294 294 294 294 294 294 295 294 294 296 298 300 305 308 310 307 300 298 299 299 298 298 300 301 300 300 299 298 299 300 298 298 297 297 295 292 293 292 292 300 302 298 297 300 303 300 295 299 301 298 299 298 297 300 299 298 300 306 311 309 309 312 309 308 310 309 306 304 303 303 304 303 302 300 299 297 297 298 298 297 297 297 297 297 296 295
295 295 294 294 294 294 293 294 294 294 295 299 300 303 314 317 305 298 300 300 296 295 295 298 300 300 299 302 300 298 299 298 298 298 296 297 297 294 294 292 291 295 299 297 295 298 303 301 298 300 301 299 298 297 298 300 299 298 300 305 311 311 312 312 305 304 309 308 305 304 304 304 304 303 303 301 300 297 297 297 298 298 297 297 297 296 296 296
296 296 295 295 295 294 293 294 294 294 296 300 303 307 314 312 302 296 299 299 295 296 297 297 299 299 299 300 299 298 299 298 297 298 298 298 299 297 295 293 292 293 295 298 296 295 299 301 299 298 298 298 298 297 297 297 298 300 299 302 305 304 308 310 305 305 308 307 306 305 305 307 305 303 303 302 300 298 297 298 298 299 298 297 297 296 296 295
297 297 295 296 295 293 294 294 294 295 297 303 310 313 311 304 300 299 300 299 297 298 297 296 299 302 300 300 299 297 297 297 298 299 299 299 299 298 296 293 292 291 294 298 296 293 296 297 298 297 296 297 297 297 297 297 300 301 299 301 300 297 302 306 304 304 305 305 307 307 306 305 303 303 303 302 300 298 298 298 298 298 299 299 299 297 297 296
298 297 296 296 294 293 294 295 296 296 298 308 317 311 305 299 298 300 300 299 299 298 297 298 301 304 303 303 301 299 297 295 297 300 299 297 297 296 295 294 292 290 293 296 295 295 299 300 299 299 298 297 296 297 297 296 298 301 300 298 294 294 300 304 301 300 301 302 305 307 307 305 304 304 303 302 301 299 298 298 298 299 299 299 299 298 297 296
298 299 297 295 294 294 294 296 298 297 299 313 319 304 297 296 296 299 300 299 298 298 300 301 298 297 301 304 302 300 298 295 296 300 299 297 298 297 295 295 292 290 291 294 294 294 297 301 300 298 300 299 296 297 299 297 295 298 298 295 293 296 300 301 301 304 304 300 301 305 307 308 308 306 303 301 301 301 300 298 298 299 299 299 300 299 298 297
298 300 298 295 295 294 295 298 298 298 304 314 313 301 296 296 295 297 299 298 298 300 302 303 298 293 297 302 301 299 298 297 299 301 299 298 298 296 294 295 294 291 290 292 295 293 294 300 301 296 297 298 298 301 303 300 297 296 296 295 295 299 301 301 301 303 301 298 299 302 301 301 306 307 304 302 302 301 300 300 299 298 299 300 301 301 299 298
298 303 302 296 294 294 297 298 296 302 314 315 308 301 297 297 296 297 298 297 298 301 302 301 297 294 296 298 299 298 297 297 298 298 298 297 296 295 293 293 293 292 291 293 295 294 293 300 305 299 295 297 300 303 302 299 298 297 297 297 298 298 298 299 298 297 297 296 296 300 301 301 304 306 306 304 301 299 300 300 299 298 299 300 300 300 301 300
298 306 304 295 295 296 296 297 298 307 315 307 301 298 294 297 300 298 298 297 297 299 300 299 297 298 298 296 296 297 296 296 297 297 297 296 295 294 293 292 291 291 294 295 296 295 294 298 303 301 298 299 300 299 298 296 297 298 298 297 298 297 296 297 295 294 296 296 295 297 301 304 303 303 306 306 300 299 300 299 298 298 299 299 300 300 301 300
299 306 302 294 296 295 296 301 301 302 305 299 296 297 295 297 300 298 297 297 296 297 297 299 299 299 299 296 294 295 296 298 298 297 296 295 294 295 293 292 291 291 294 297 296 296 296 296 299 301 302 303 299 296 297 296 297 299 298 296 296 296 297 298 295 295 296 295 296 297 299 304 302 298 302 305 300 298 298 298 298 298 298 298 299 299 299 300
302 305 298 295 296 295 300 306 298 295 302 300 296 297 297 298 298 297 295 295 296 297 296 298 298 298 298 297 295 295 296 299 298 296 296 295 295 297 294 292 292 291 294 296 294 294 296 295 296 299 300 298 296 296 296 296 297 298 297 297 296 295 298 299 296 297 296 293 294 294 297 303 302 298 300 301 298 297 297 297 298 297 297 297 297 298 298 299
306 302 297 296 295 296 305 307 298 296 299 296 293 295 296 297 297 295 294 295 295 295 297 298 296 296 296 296 296 295 296 298 297 296 297 295 295 297 296 292 292 294 294 295 295 294 296 295 295 299 300 297 297 297 295 295 296 295 294 296 297 295 296 299 297 297 296 296 296 295 298 305 303 299 298 296 296 297 296 297 298 297 296 296 296 297 296 297
303 300 299 297 294 300 310 309 304 301 296 295 297 296 295 295 295 295 295 297 296 295 298 298 295 295 295 295 296 294 293 294 295 295 295 294 293 295 296 293 293 294 295 295 295 294 295 296 296 301 304 303 303 303 300 298 297 295 293 294 296 294 294 296 296 294 295 298 298 298 302 305 301 299 297 295 295 296 295 296 296 296 296 296 296 296 296 296
300 299 301 299 294 299 306 305 306 304 296 296 299 298 296 296 294 294 295 296 296 296 298 296 295 297 296 293 293 293 291 292 292 293 293 292 293 294 294 294 293 294 295 294 294 294 295 296 296 298 301 302 304 303 300 298 295 294 293 293 295 294 292 293 294 294 296 296 295 297 303 302 298 298 298 296 296 296 295 295 294 294 295 295 295 295 296 296
301 303 305 304 299 298 297 295 298 303 300 299 300 297 297 298 295 293 294 295 295 295 296 296 295 297 295 293 295 296 293 290 289 290 292 293 295 293 292 293 293 294 295 293 293 295 295 293 293 295 298 299 299 297 294 293 293 293 293 292 293 292 291 292 294 295 296 296 295 296 298 297 296 295 296 296 297 296 295 295 294 294 294 294 294 294 295 295
301 304 302 303 303 302 299 295 296 301 302 302 300 297 298 298 295 292 292 293 294 294 296 295 294 296 296 295 298 297 292 289 287 289 291 292 293 292 292 292 293 295 295 291 292 295 294 292 292 293 293 293 293 292 291 291 291 291 291 291 291 291 292 293 294 294 294 295 296 295 293 294 294 294 294 296 296 296 296 295 294 294 293 293 293 293 294 294
298 300 294 294 299 302 299 297 299 300 298 299 298 296 298 299 296 294 294 292 292 293 294 294 294 296 296 295 298 297 292 291 291 290 290 290 290 292 292 291 292 295 294 291 292 294 293 293 293 290 290 291 290 290 291 290 290 290 290 290 290 290 292 292 292 292 292 294 295 294 293 294 294 293 294 295 295 295 295 294 294 294 293 293 292 292 293 292
296 297 291 290 296 300 297 296 297 298 298 299 298 295 298 300 298 297 294 293 294 293 293 295 296 296 296 294 295 296 294 294 295 293 291 290 290 291 292 292 292 293 292 291 291 291 291 294 293 290 290 291 289 289 290 289 290 289 289 290 290 289 290 291 291 291 291 292 293 292 292 292 292 292 292 292 293 293 292 292 293 293 293 293 292 292 292 291
297 299 295 294 297 297 295 295 296 297 298 298 299 297 296 300 300 297 294 295 299 296 291 295 298 296 295 294 294 295 296 296 296 295 291 290 291 291 292 294 293 291 291 291 290 288 289 293 293 291 292 292 290 290 290 289 289 290 290 290 290 290 290 290 290 290 291 291 291 291 291 291 291 292 292 292 292 293 293 293 293 292 293 293 293 292 291 291
294 294 294 300 301 296 295 296 295 298 299 297 299 299 296 298 299 296 295 296 299 298 294 296 299 295 294 294 293 293 294 293 295 296 293 292 294 293 293 294 294 292 291 290 290 290 289 292 293 292 294 296 292 289 291 290 290 291 293 293 291 291 291 290 290 290 291 291 291 291 291 291 291 292 293 294 294 294 294 294 294 293 293 293 293 293 292 291
291 290 292 301 304 297 296 296 294 298 303 300 300 299 298 299 297 295 297 296 294 296 297 296 297 295 294 295 294 294 294 293 294 296 294 292 293 294 294 294 294 294 292 290 291 291 290 293 294 291 294 298 293 289 290 290 293 299 300 298 295 293 291 291 290 290 290 291 291 292 293 292 292 293 294 295 295 296 295 295 294 294 294 293 293 293 292 291
Wind_Speed
18 18 18 18 18 18 18 18 18 18 18 17 16 14 14 13 13 13 15 15 14 15 14 16 15 11 7 2 2 4 14 31 40 43 36 26 28 27 26 28 27 28 27 26 31 27 20 23 24 23 15 7 5 5 7 5 4 4 3 3 2 1 2 3 4 3 4 5 8 8 9 8 8 12 10 10 10 8 8 11 12 13 15 14 16 12 14 18
18 18 18 19 19 19 19 18 18 18 17 16 15 13 13 13 13 13 14 15 13 14 14 14 16 15 11 4 5 2 6 24 35 36 34 30 29 28 26 28 26 25 26 26 28 24 15 13 17 16 8 4 5 6 6 5 5 3 3 3 3 1 2 3 5 4 4 5 7 7 8 6 5 10 8 8 12 11 10 12 14 15 16 16 19 19 10 8
18 18 18 19 19 19 19 18 18 17 16 15 13 12 13 13 12 13 14 15 13 12 12 12 15 18 15 5 7 7 4 13 25 27 33 33 29 28 27 26 24 22 23 21 21 19 12 8 10 9 5 5 5 5 7 6 5 3 3 3 2 1 2 3 6 5 5 5 7 7 7 5 5 8 5 7 10 9 9 9 12 13 14 12 11 17 17 10
18 18 19 19 19 19 18 18 18 16 15 13 12 12 12 12 12 12 14 15 14 12 12 11 13 21 20 4 6 7 5 6 14 22 32 32 29 27 26 25 22 21 20 18 18 19 18 13 10 7 5 5 5 5 7 6 4 3 4 4 2 3 2 3 5 5 6 5 6 6 7 7 7 6 4 6 8 7 6 6 8 9 12 12 6 6 9 11
18 18 19 19 19 19 18 18 17 16 14 12 11 12 12 13 12 12 14 15 16 15 13 12 10 19 28 17 4 7 2 5 10 25 32 30 28 25 23 23 20 19 21 20 18 21 23 19 11 7 5 5 6 5 5 6 3 2 3 4 3 4 3 2 3 5 6 5 7 7 6 6 7 6 3 3 4 5 5 7 8 6 7 12 5 4 4 6
17 18 19 19 19 18 18 17 16 15 13 11 11 11 12 13 12 12 14 16 20 20 19 15 7 9 20 27 23 13 8 4 11 25 30 29 26 21 21 22 19 18 23 25 22 21 20 15 9 6 4 4 7 5 4 7 4 3 1 4 4 3 4 4 3 4 4 5 6 6 5 4 6 8 3 1 4 6 7 8 8 5 6 11 7 3 3 2
18 19 19 18 18 17 17 16 15 14 12 11 11 11 12 12 11 12 14 17 20 23 24 22 12 2 1 12 25 25 15 3 14 24 28 28 22 19 19 20 20 19 25 29 24 16 11 12 9 4 3 4 6 5 5 6 5 5 2 6 7 5 5 6 6 5 3 5 6 4 5 5 6 6 4 7 8 7 9 9 7 8 8 9 8 3 4 3
19 19 18 18 17 16 16 15 14 14 13 12 11 11 11 11 10 11 13 15 15 18 22 25 22 8 4 3 6 13 11 8 20 25 26 25 19 18 18 19 22 21 23 26 21 11 6 10 8 4 4 4 4 5 5 5 6 6 3 6 7 7 7 8 9 8 5 4 5 4 6 7 7 4 5 10 10 7 7 8 8 9 9 7 7 6 5 4
20 18 17 17 17 16 15 14 14 14 13 11 11 11 11 10 9 9 10 11 11 12 14 22 28 18 6 4 3 6 9 14 22 24 25 23 17 16 17 19 22 20 21 21 20 15 6 6 6 3 3 1 3 5 6 4 4 4 5 6 6 7 8 8 9 11 8 3 2 4 6 8 6 3 4 8 9 8 6 7 8 7 8 7 5 5 6 5
19 17 16 16 16 16 14 13 13 13 12 11 11 12 12 11 10 8 7 8 9 11 12 14 21 26 21 6 3 8 10 17 23 25 24 20 16 16 18 19 20 20 20 18 20 17 8 6 6 2 2 1 3 4 4 4 2 4 5 6 6 7 7 7 8 11 9 3 1 2 6 7 5 3 2 7 10 11 9 9 9 6 7 7 6 5 5 7
19 16 15 15 15 15 13 13 12 12 11 10 12 13 14 13 11 9 8 8 8 9 12 11 12 21 25 16 11 9 12 18 23 27 24 17 16 17 18 17 17 18 18 17 17 15 11 10 9 2 2 3 3 4 2 2 4 5 4 5 7 6 5 8 11 11 8 3 0 4 3 6 5 3 4 9 12 13 12 10 9 7 5 5 6 6 5 8
18 15 14 15 15 15 13 12 12 12 11 10 11 12 13 13 11 9 7 7 7 7 9 10 12 10 10 15 14 8 15 20 24 28 24 16 14 16 16 15 13 14 14 15 14 14 12 11 11 6 1 2 2 4 2 4 6 3 3 5 9 7 7 11 12 11 7 4 6 1 2 7 6 6 9 11 12 12 12 11 10 8 5 2 4 5 6 13
16 14 14 15 15 14 13 12 13 13 12 10 10 9 11 10 9 7 6 6 5 7 7 6 10 11 7 7 10 15 20 22 27 28 23 18 14 13 15 11 9 11 12 12 12 12 11 10 9 5 0 2 1 2 2 5 5 3 4 5 7 7 6 10 11 13 9 7 11 4 3 6 6 9 12 11 12 12 12 12 11 9 5 2 2 6 10 17
15 14 14 15 14 13 12 13 14 15 14 13 11 9 8 7 7 6 7 8 4 4 7 6 5 10 11 4 5 20 25 25 30 30 26 22 18 17 17 12 9 10 10 10 10 11 10 10 7 3 1 3 2 3 3 5 6 5 4 4 5 4 5 10 8 13 12 7 12 6 4 6 9 14 15 13 13 13 12 13 14 12 10 8 8 10 11 15
14 14 14 15 13 11 12 14 16 18 19 18 16 13 9 5 6 8 9 12 11 4 3 8 7 5 7 4 3 20 28 30 32 33 29 24 21 19 18 14 12 13 10 8 9 9 9 7 5 4 3 4 3 4 3 3 5 5 4 3 5 3 5 9 6 11 10 7 11 8 4 7 11 15 15 14 14 15 14 14 15 16 15 13 10 11 11 13
13 14 14 14 12 10 11 14 16 18 20 22 23 22 17 9 3 5 8 11 16 13 6 8 9 5 6 1 7 18 26 28 29 31 29 22 19 18 18 15 14 15 10 8 9 8 8 5 3 4 3 5 6 4 2 4 4 4 4 2 4 5 5 8 6 10 11 7 11 10 7 6 9 13 16 17 16 15 15 15 16 16 15 13 11 11 11 13
13 13 14 13 11 9 9 11 14 15 17 19 22 27 28 23 11 2 1 0 6 11 13 15 10 3 6 7 8 12 19 23 25 31 31 22 17 19 20 14 14 13 8 9 12 9 8 5 3 3 4 6 6 3 3 6 6 4 4 2 2 4 4 5 6 9 12 9 10 12 10 7 9 13 17 18 16 16 16 15 16 15 13 13 11 12 12 14
13 13 13 13 11 7 5 7 8 10 11 11 13 16 22 27 27 22 13 4 1 3 9 19 13 4 5 10 7 11 20 21 22 30 32 23 15 19 20 11 12 12 5 6 9 7 6 3 2 3 4 6 7 7 6 4 4 3 4 2 2 4 2 4 5 6 10 10 10 12 11 11 13 14 16 17 16 17 16 14 13 14 14 13 13 13 13 15
13 13 13 13 12 8 3 3 3 3 2 2 4 5 5 9 18 29 30 20 10 4 3 11 10 4 2 8 9 16 19 13 17 27 32 26 15 15 20 13 10 10 5 4 5 6 3 2 4 4 7 8 7 8 5 3 4 4 4 2 3 4 3 4 4 4 5 10 11 10 10 11 14 14 15 15 15 16 16 14 12 12 13 13 13 13 14 16
12 12 12 12 12 10 5 1 4 7 7 6 5 5 3 2 5 11 18 19 12 9 6 2 3 3 2 6 11 20 15 6 12 24 32 29 15 11 16 12 6 6 5 3 4 4 3 7 9 6 7 7 5 5 5 3 2 2 2 2 4 3 4 4 2 5 4 7 7 9 13 12 13 14 13 12 15 17 16 15 14 13 13 12 13 14 15 16
11 10 11 11 12 12 11 7 2 5 7 8 4 4 2 2 5 1 3 9 8 8 8 2 2 2 3 5 10 18 9 3 10 19 30 28 13 7 8 8 6 7 7 5 3 4 5 11 8 6 6 6 4 4 6 5 2 1 1 2 3 1 4 4 4 5 4 6 5 9 16 13 12 14 13 12 16 17 14 13 14 14 13 12 13 15 14 12
10 9 8 10 11 13 14 14 11 5 3 2 5 11 7 4 6 6 3 5 4 4 4 2 4 3 4 2 10 16 4 4 11 18 30 27 12 6 3 5 6 4 7 6 4 5 8 10 7 7 6 4 3 3 5 5 2 2 1 2 2 0 3 3 4 4 4 4 4 10 15 11 10 13 13 14 14 13 13 12 12 12 12 13 14 14 13 12
11 8 7 7 9 12 14 15 13 8 7 11 15 13 7 6 6 5 3 5 2 3 1 2 4 5 6 5 14 16 5 5 7 12 25 21 8 4 2 5 6 4 6 7 7 8 7 5 6 5 5 6 6 5 6 5 2 2 2 1 2 2 1 2 2 5 5 2 4 8 11 8 8 10 11 12 11 11 13 11 10 10 12 13 13 13 14 15
11 9 7 4 4 8 10 12 12 12 14 18 19 13 6 4 4 3 3 4 2 1 0 1 2 3 4 4 16 13 2 3 2 9 21 16 5 3 3 3 5 6 6 6 9 9 4 4 5 5 7 7 5 6 7 6 5 3 2 1 3 4 3 2 1 3 4 2 3 4 6 6 8 9 9 8 7 9 11 10 10 9 10 12 12 13 14 14
10 10 9 6 4 4 6 8 11 11 11 13 14 10 4 3 3 2 3 4 4 3 2 1 1 6 5 7 16 8 1 3 4 8 16 15 7 2 3 2 3 6 6 4 6 6 2 3 4 7 8 7 6 6 5 4 4 4 2 2 4 4 2 2 0 1 1 3 4 3 2 4 5 7 8 6 6 9 8 9 10 10 10 12 12 12 12 12
10 9 11 10 5 3 4 5 8 7 5 8 9 6 1 4 4 0 2 5 4 3 4 3 2 9 9 10 15 5 2 5 7 12 18 18 9 1 3 4 2 4 4 2 3 1 3 5 4 5 6 8 8 6 4 3 4 3 2 2 4 2 1 4 1 2 2 1 3 3 2 2 2 5 7 7 7 8 7 9 10 9 10 11 11 11 10 10
11 9 10 12 10 5 2 3 6 6 4 5 8 6 2 4 4 1 2 5 4 1 4 4 2 9 9 10 13 3 3 8 10 15 20 20 10 1 4 5 2 4 1 2 3 1 3 7 6 6 7 8 7 6 5 5 4 3 5 7 4 2 2 2 1 4 3 2 1 5 3 3 2 5 7 7 6 7 9 10 10 9 9 10 10 9 10 9
11 10 9 11 13 11 7 4 5 7 5 7 9 6 1 3 3 0 5 5 3 0 1 3 2 7 7 9 11 6 1 6 4 9 17 20 13 1 5 5 1 3 3 5 3 3 2 4 7 7 8 6 5 7 8 5 2 4 7 8 3 4 4 1 3 5 3 2 3 4 2 3 2 4 5 6 6 6 8 8 9 9 8 8 8 8 8 7
10 9 9 9 10 11 11 10 9 8 8 9 8 3 1 1 0 3 6 3 2 1 1 1 3 5 8 8 8 5 2 3 3 7 15 18 17 6 4 2 1 1 5 6 4 3 2 3 3 2 6 6 7 9 7 4 2 7 6 5 3 5 4 1 2 4 2 2 3 4 2 2 1 3 4 4 4 4 5 5 6 6 5 6 6 6 7 6
10 9 10 9 8 9 9 11 12 9 8 9 5 1 0 2 3 5 5 1 0 1 1 3 3 4 7 7 5 5 4 2 1 5 6 5 12 11 4 1 4 4 5 5 4 3 4 4 2 2 3 5 7 7 4 2 5 6 3 3 3 4 3 2 2 2 2 3 3 4 2 1 1 2 2 1 2 4 3 2 3 4 4 4 5 5 5 5
9 9 11 11 12 11 7 8 11 9 9 8 3 2 2 2 4 7 2 1 1 2 3 4 3 4 7 5 4 5 3 3 5 5 5 3 9 14 7 4 5 4 6 6 5 7 6 5 3 1 2 3 5 5 3 4 6 5 4 3 3 3 3 4 4 4 5 2 2 3 3 2 1 1 2 2 3 4 3 1 1 3 4 3 3 4 4 4
8 9 10 12 12 11 8 6 9 9 7 5 3 3 3 3 4 3 1 4 2 2 3 3 3 5 6 4 4 6 4 5 6 6 6 5 7 8 7 5 3 3 6 5 6 7 4 2 4 5 3 6 7 6 7 7 8 8 5 5 4 3 4 4 4 3 2 1 2 2 3 3 0 3 4 3 4 4 3 1 1 1 3 4 4 3 3 3
8 8 9 11 11 11 10 7 7 7 4 3 4 4 6 5 3 0 3 3 1 3 2 2 4 4 5 4 5 7 4 3 6 5 3 2 3 4 5 4 3 2 1 2 4 6 4 4 6 7 5 5 6 5 6 6 6 7 4 4 4 2 4 2 3 3 1 3 3 2 3 1 2 4 5 5 5 5 3 2 2 2 1 2 3 3 3 3
6 9 9 10 11 11 11 8 7 5 2 4 4 5 7 4 0 0 3 3 1 3 2 2 5 5 5 4 3 5 3 2 4 5 3 2 4 4 3 5 6 3 2 2 2 2 3 4 4 5 2 4 5 2 2 4 3 4 0 4 4 3 3 1 2 0 2 4 4 3 3 2 2 2 4 5 4 4 3 3 2 2 2 2 2 2 3 2
4 7 10 10 11 12 11 8 7 3 3 4 6 6 5 2 3 1 1 4 1 3 3 3 4 4 5 3 3 3 2 2 3 5 5 4 3 3 3 4 6 3 2 2 2 0 2 4 5 2 3 1 5 3 3 1 1 2 1 4 2 1 3 2 3 3 2 2 3 2 0 4 3 3 4 2 2 4 2 0 1 2 3 2 2 2 2 1
3 5 9 11 12 12 10 9 7 2 3 4 7 5 2 3 3 3 2 2 1 1 2 4 4 5 4 4 3 4 3 2 3 4 4 3 1 1 2 2 3 4 2 2 1 2 2 4 5 5 3 2 4 4 3 4 0 2 3 2 3 2 5 2 1 1 1 1 3 1 1 3 2 3 5 3 3 5 4 3 2 4 5 4 3 4 3 2
2 4 8 11 14 12 10 10 7 1 2 6 7 2 2 2 3 3 1 1 2 2 3 2 2 2 2 3 3 5 4 3 3 3 2 2 2 1 2 3 1 3 0 2 1 0 0 4 5 3 3 4 2 1 1 3 2 2 3 2 3 1 3 2 1 4 4 1 3 2 2 3 1 1 4 4 5 7 6 5 5 5 5 4 4 5 4 4
1 3 5 12 16 12 10 11 6 1 3 7 6 2 1 1 1 2 0 1 2 2 4 2 1 1 2 1 3 5 4 3 3 4 1 1 1 1 1 3 1 2 2 1 2 1 1 3 5 1 1 7 5 3 2 5 4 3 1 1 1 3 3 2 3 2 3 2 4 5 3 2 3 3 3 6 8 8 7 6 5 5 5 5 5 5 5 5
3 1 3 12 16 13 11 10 4 3 5 6 3 1 2 1 2 2 2 0 1 2 3 3 1 1 2 2 1 3 3 3 3 3 1 1 1 2 2 1 3 3 3 1 2 2 1 1 3 3 2 5 5 4 2 5 6 3 3 3 2 3 2 1 2 1 1 0 3 4 5 2 4 4 5 9 10 8 7 6 6 6 6 5 5 5 5 5
3 2 1 11 16 11 9 7 5 6 6 4 3 1 1 1 3 3 2 1 1 1 1 2 2 2 2 2 1 1 1 1 1 1 1 0 1 1 0 1 3 4 4 3 2 1 1 2 3 6 5 3 2 2 1 1 3 3 4 4 3 2 2 1 1 2 3 2 1 1 4 5 5 3 6 9 8 8 8 7 7 7 6 6 5 5 5 5
2 3 2 10 15 9 6 8 7 5 4 3 1 1 0 2 1 2 3 2 2 1 1 3 3 2 3 2 1 2 1 0 0 0 1 1 1 0 2 2 2 2 3 4 3 1 1 1 2 4 5 2 2 2 1 2 2 2 2 2 0 1 3 3 2 3 2 2 3 2 3 7 5 3 5 7 7 8 8 7 7 7 7 7 6 6 5 5
3 3 2 11 14 6 5 7 4 3 4 2 1 1 1 1 2 1 2 2 2 0 1 3 3 2 2 2 1 2 2 1 2 1 1 2 2 2 3 3 2 1 1 2 2 1 1 2 0 3 4 3 5 4 1 1 2 3 1 2 3 2 4 5 2 3 1 1 1 3 2 7 6 3 5 6 7 7 7 8 7 7 7 7 7 7 6 5
3 2 2 12 13 2 6 6 2 3 3 1 1 0 0 1 1 1 1 1 1 0 1 1 1 1 1 2 1 2 2 1 3 2 2 3 3 4 5 3 2 1 2 1 2 1 2 2 1 4 4 4 6 5 2 2 1 2 1 1 3 2 3 4 4 2 0 2 1 2 3 7 5 3 3 3 4 5 5 7 8 7 6 6 7 7 6 5
1 2 2 12 11 1 4 3 2 2 1 1 2 1 1 1 1 0 0 1 0 1 1 0 1 1 1 1 2 3 2 1 1 2 2 3 2 3 5 3 2 2 1 2 1 0 0 0 1 3 5 6 6 6 5 5 2 1 3 2 2 3 4 3 1 3 0 4 5 4 4 7 4 4 2 1 3 5 6 6 7 7 6 7 7 6 6 6
1 1 3 9 12 7 4 3 5 5 3 2 3 1 0 1 0 1 2 2 0 2 1 1 0 2 2 2 3 1 1 1 1 2 0 1 3 2 3 3 2 2 2 2 2 2 1 1 2 3 1 3 3 4 3 3 2 2 2 2 3 4 4 2 1 3 2 4 5 5 6 6 5 4 3 3 4 6 7 6 5 6 6 7 6 6 6 6
2 1 2 6 10 9 3 0 4 5 4 4 3 2 3 1 2 1 2 1 1 2 1 1 1 3 2 1 2 2 3 3 2 1 1 2 2 2 2 3 2 3 4 4 4 3 3 1 3 5 5 5 4 5 2 1 2 5 4 3 4 4 2 3 3 3 4 3 3 8 9 9 11 8 5 6 6 6 8 7 6 7 7 7 7 7 7 6
2 1 0 2 4 4 4 3 4 4 3 4 3 3 5 4 1 1 1 1 1 2 1 1 1 2 2 3 2 1 2 3 3 1 3 3 2 3 2 2 1 4 5 4 3 3 4 2 4 6 8 9 6 8 7 5 6 8 8 7 7 7 5 5 6 6 4 3 5 8 6 8 14 9 6 8 7 7 8 8 7 7 7 8 7 7 8 8
2 2 2 1 1 1 2 1 2 4 3 3 3 3 5 4 3 2 2 0 1 1 1 1 3 6 6 5 4 1 1 2 3 3 2 1 1 3 2 1 1 2 3 2 3 3 5 3 4 3 6 10 9 10 11 9 8 9 11 12 10 8 9 11 12 8 7 6 10 6 4 8 13 10 7 9 8 7 8 8 8 8 7 8 8 8 9 9
2 2 0 2 1 2 1 1 3 5 4 3 2 2 5 6 6 4 2 3 1 2 2 2 6 8 7 6 5 3 3 3 2 4 3 1 1 1 1 1 2 2 3 2 2 1 3 2 3 1 6 10 10 10 10 9 8 9 12 14 12 11 13 15 15 11 11 14 17 12 10 14 16 15 14 11 7 7 8 7 7 8 8 9 9 10 10 11
1 2 1 2 3 2 1 2 4 4 2 1 1 3 4 7 7 4 3 5 3 2 3 5 7 6 7 7 5 5 7 7 3 4 5 4 1 1 2 2 1 1 2 1 1 2 1 2 1 2 4 8 6 4 5 5 7 10 15 16 14 13 13 14 14 12 11 15 18 16 14 17 18 15 13 11 7 6 8 9 9 9 9 9 10 10 10 10
2 2 3 4 3 1 1 1 3 3 1 1 3 3 4 6 8 5 3 5 7 6 7 8 6 4 5 6 8 10 10 7 5 5 8 7 3 3 3 3 4 4 1 2 1 0 1 2 2 5 4 7 3 4 6 6 7 11 18 21 17 13 11 11 11 11 11 12 13 9 8 13 15 8 5 7 7 7 9 10 9 9 9 9 10 10 10 11
2 1 2 4 2 1 2 2 2 2 2 3 4 4 4 4 6 5 2 3 4 6 8 9 7 5 4 6 12 14 10 7 7 6 7 6 3 4 3 3 5 5 4 4 1 0 2 1 1 2 2 6 5 4 6 7 8 9 11 12 9 9 9 7 6 10 13 11 7 7 9 11 9 3 4 7 7 7 9 10 9 9 9 9 10 11 11 11
Wind_Direction
27 25 22 19 16 14 12 10 8 4 4 7 9 18 28 38 39 41 40 38 37 35 38 36 36 27 8 337 356 48 39 31 31 32 33 16 2 360 357 356 355 357 359 6 15 16 11 8 3 6 21 30 8 353 350 5 19 37 80 87 114 82 39 26 38 18 320 317 341 342 349 356 341 340 334 337 350 348 11 30 11 12 19 15 14 36 125 146
24 22 19 16 13 11 9 7 5 3 5 9 14 24 35 44 43 44 44 40 42 39 40 38 34 24 3 308 264 224 60 29 30 31 21 5 1 1 358 359 359 3 6 13 16 11 3 347 342 354 19 34 0 0 8 2 15 55 94 83 121 57 331 29 46 21 353 324 330 344 341 353 356 333 338 352 336 343 18 14 360 9 9 7 9 14 41 108
22 19 15 12 10 7 6 5 4 3 6 12 18 32 43 50 47 45 46 44 46 38 33 29 27 18 2 302 243 214 211 16 29 22 6 2 1 1 360 360 4 9 11 17 18 14 14 343 343 7 41 42 3 14 30 6 3 47 78 65 70 342 290 26 44 14 346 327 333 344 335 342 345 333 345 352 329 344 27 12 358 358 349 350 349 351 2 9
18 16 12 9 7 5 3 3 3 3 10 14 22 44 54 53 50 48 48 48 46 38 27 17 19 21 18 352 215 196 210 24 27 0 357 0 357 357 360 4 10 12 13 21 23 25 31 22 22 38 54 38 354 18 32 356 347 16 75 82 334 335 342 13 30 356 336 334 335 333 338 340 332 334 345 360 349 337 355 0 353 338 327 336 327 316 337 336
16 12 9 6 4 3 2 2 3 6 14 20 36 57 62 55 54 53 53 54 51 45 34 25 26 35 40 51 124 196 187 51 356 348 358 357 353 357 1 10 17 12 18 29 27 30 35 29 31 40 48 41 2 19 17 340 358 24 68 79 351 353 349 334 24 345 328 334 334 339 347 332 317 322 319 17 0 292 304 320 321 321 322 331 316 238 284 329
13 9 7 4 3 3 2 4 5 10 21 33 54 67 64 57 57 62 62 61 58 53 43 37 36 50 52 56 69 87 91 84 326 345 359 356 355 2 5 16 20 13 24 34 32 32 32 25 35 43 33 46 25 23 352 336 19 63 356 9 1 358 320 314 358 331 328 344 331 330 324 313 325 320 292 285 286 265 276 286 292 302 322 334 333 245 266 313
9 6 6 3 7 10 5 8 12 18 33 49 66 70 61 57 65 71 70 67 64 56 46 41 40 71 100 51 59 67 83 74 339 352 358 357 0 6 10 19 19 19 29 33 30 28 29 30 38 41 32 47 26 359 345 345 23 56 337 329 339 334 313 312 326 314 321 314 289 306 326 327 324 316 326 313 292 274 276 280 287 302 315 340 349 299 268 259
4 4 5 4 15 20 15 21 28 35 48 59 68 64 50 51 75 85 75 70 62 51 43 39 40 44 223 240 47 58 63 4 353 358 357 0 7 12 15 20 20 25 35 36 31 24 25 35 30 24 46 50 17 340 341 2 22 34 345 321 330 322 321 324 324 316 315 285 277 330 329 301 286 285 315 301 291 283 278 294 305 313 323 341 353 339 321 294
3 3 5 9 20 25 25 34 42 50 56 64 65 55 41 43 80 97 79 65 49 41 37 39 43 48 81 179 198 61 23 352 358 359 0 6 13 19 21 19 18 25 37 37 34 33 37 42 16 10 69 66 27 347 340 21 22 1 324 307 315 317 328 336 327 321 319 299 307 340 311 289 290 300 282 277 292 303 298 309 311 323 334 332 342 338 335 324
2 1 8 15 24 27 31 41 49 58 60 67 63 51 46 51 78 94 80 62 48 44 38 40 43 51 63 74 106 65 359 352 6 3 6 14 15 23 23 16 14 22 32 32 33 34 40 37 348 301 137 27 4 340 351 49 350 311 303 286 299 315 329 339 331 331 330 328 137 241 279 291 309 6 300 290 312 323 325 321 315 322 324 321 323 321 334 338
1 4 14 19 27 31 36 44 52 62 67 71 64 56 55 61 74 80 79 67 55 46 36 38 37 47 55 53 70 62 357 360 7 7 15 20 20 25 20 12 10 18 25 27 30 26 29 22 356 359 100 1 349 341 343 21 320 301 309 310 321 333 359 360 352 349 351 350 236 201 265 322 340 12 314 307 318 325 329 323 320 324 315 310 311 314 341 358
1 9 18 22 30 35 42 50 57 66 71 73 66 58 56 62 71 73 76 60 44 32 23 35 37 35 44 50 63 39 4 9 7 12 21 22 27 26 19 10 7 18 20 22 24 19 21 12 15 53 37 333 355 354 331 322 326 318 13 6 340 358 31 10 356 350 3 352 328 290 15 354 0 337 310 315 323 326 332 329 327 328 328 304 298 322 14 26
4 16 22 26 33 41 50 58 66 71 74 72 63 53 51 59 67 67 59 37 27 34 30 36 40 41 45 59 53 22 13 14 14 20 23 23 27 23 22 13 6 22 21 19 18 16 17 3 21 83 146 17 327 329 352 343 351 2 25 38 357 3 15 0 352 349 8 359 342 32 70 337 342 337 331 337 338 341 344 343 345 343 356 61 23 21 37 35
11 22 25 31 39 49 60 70 75 76 77 72 60 49 46 57 63 61 51 38 26 24 35 34 35 47 50 93 56 19 14 20 24 23 18 15 16 19 26 31 29 25 15 13 9 6 10 6 20 89 49 25 317 338 22 3 18 14 358 31 18 10 337 338 350 0 8 351 348 46 88 347 3 358 354 359 359 12 14 5 11 17 33 58 54 49 51 40
17 25 29 37 45 58 73 82 82 80 78 72 67 58 47 55 68 72 67 57 53 50 48 36 31 50 57 99 34 12 15 22 21 15 13 11 11 9 11 26 32 19 12 6 2 0 2 10 35 55 7 348 9 33 49 29 26 25 15 12 3 2 328 327 346 11 2 333 356 39 66 12 15 3 4 16 17 31 34 22 26 34 45 55 54 50 51 44
23 30 36 41 49 68 87 92 89 85 79 73 69 63 57 54 67 87 75 66 58 56 65 26 12 55 87 30 339 3 11 10 6 9 15 15 12 4 4 22 23 21 41 34 16 8 359 13 57 61 16 4 31 38 71 53 21 31 46 15 346 352 342 333 349 7 356 351 16 42 62 26 6 0 13 24 24 34 37 29 30 34 42 49 52 49 44 40
29 37 43 46 52 72 99 104 98 91 83 79 73 68 65 60 59 93 235 266 48 46 48 25 2 84 70 2 349 358 351 349 358 8 14 16 15 15 19 25 9 15 67 50 27 20 3 18 41 41 34 27 29 12 59 44 2 5 26 30 12 349 326 331 344 358 6 28 41 48 62 39 8 12 24 24 22 36 38 29 30 31 35 41 46 49 45 42
36 44 47 48 51 67 106 121 117 106 93 86 76 71 67 60 60 60 54 64 310 340 30 19 13 94 34 358 352 330 326 337 360 7 11 16 15 22 28 27 7 12 49 31 23 25 9 23 68 65 38 27 28 30 49 23 330 322 343 351 346 333 295 315 332 345 13 40 46 47 52 35 19 18 27 23 20 37 38 30 33 33 33 36 40 43 44 46
43 47 49 49 49 56 98 178 172 158 144 59 36 43 47 43 52 52 49 54 56 45 33 359 9 102 334 327 321 327 327 333 2 8 10 9 3 18 26 24 19 26 38 359 2 15 12 50 54 43 19 10 17 33 37 303 287 276 300 313 304 320 297 290 322 323 11 51 43 47 53 35 26 17 21 24 24 37 38 31 35 35 36 36 39 42 40 44
47 49 50 48 47 50 55 244 255 258 265 284 312 348 2 2 31 34 32 45 67 85 102 333 352 101 325 303 320 341 344 334 5 11 8 3 356 9 17 11 12 36 38 358 344 341 17 54 40 15 357 342 336 12 10 323 289 265 276 296 286 291 296 286 18 341 348 70 44 56 61 40 32 21 13 23 32 35 32 33 34 32 39 37 38 42 41 44
46 48 49 47 48 48 47 46 347 281 282 279 291 35 92 105 72 113 7 47 72 94 106 76 39 85 310 283 326 348 352 319 358 11 7 3 7 16 3 0 18 28 4 337 323 316 30 51 28 343 329 305 307 358 3 351 351 359 240 257 293 245 281 290 81 12 351 84 52 61 64 41 33 30 13 20 38 35 23 30 37 33 39 40 38 40 42 46
39 43 47 46 50 48 46 47 37 12 319 249 108 88 108 119 101 148 148 83 55 48 109 65 45 33 320 301 347 350 356 344 350 1 2 3 19 34 355 19 43 27 341 339 0 6 41 43 349 324 325 321 357 14 6 351 322 356 307 237 326 281 271 296 85 30 354 90 63 61 66 44 27 35 26 23 36 41 24 19 29 35 41 42 39 38 39 40
32 35 35 41 50 49 47 45 43 48 72 93 91 86 99 91 103 146 105 98 79 358 60 35 47 5 353 26 357 353 33 34 344 343 356 2 17 32 41 37 37 21 354 13 40 45 49 15 323 324 352 17 17 358 12 9 338 359 329 294 338 332 344 344 50 9 345 112 102 69 71 54 23 30 37 30 26 40 37 20 15 30 43 46 43 40 39 38
27 27 23 18 30 41 42 41 48 60 70 81 77 71 91 102 119 140 79 84 56 347 9 46 104 22 10 2 350 352 74 41 342 334 354 5 360 1 57 52 40 29 4 29 61 71 72 308 316 354 14 28 16 356 22 21 354 334 282 287 333 332 356 332 8 7 344 52 62 42 56 45 20 17 28 28 18 30 39 30 19 24 41 48 45 40 40 39
23 21 15 2 349 11 28 32 39 44 55 69 63 53 78 165 185 121 81 71 20 315 323 359 61 19 360 339 349 351 167 23 31 348 352 5 352 333 29 33 69 24 349 27 68 75 47 307 354 10 359 14 16 5 27 31 352 326 265 241 294 309 322 308 241 142 44 29 0 343 69 43 8 15 17 8 21 28 29 38 34 24 32 42 43 39 36 37
23 19 16 14 2 348 16 29 22 20 41 53 36 16 17 206 210 5 78 70 21 308 351 352 5 5 350 340 340 336 89 355 342 1 6 7 354 162 39 349 53 20 330 46 68 78 352 337 33 33 353 8 14 359 6 26 10 338 317 308 295 283 293 316 302 152 101 56 327 331 98 98 3 20 11 348 16 31 22 35 42 34 32 36 40 39 33 31
26 23 24 28 28 27 47 38 20 25 47 26 4 350 305 230 228 303 49 49 11 307 3 332 332 4 350 344 344 22 95 312 326 6 9 5 352 160 57 4 9 7 296 87 45 330 330 338 5 23 6 13 11 346 339 6 17 312 334 353 351 122 133 339 60 118 120 167 346 7 48 90 31 11 1 339 357 29 25 26 35 39 39 35 34 36 36 32
34 32 33 37 39 44 56 52 37 44 35 358 352 351 287 219 218 49 79 70 347 329 52 305 326 1 348 359 13 61 115 302 351 353 347 9 14 24 62 37 62 315 328 89 72 286 283 337 345 4 10 9 352 322 312 348 23 273 320 352 9 112 120 76 110 125 144 148 54 4 359 68 27 337 348 343 347 18 24 18 20 32 42 41 36 33 36 36
44 43 37 36 37 39 46 50 43 34 13 359 358 352 185 143 121 52 74 104 311 351 140 322 351 347 347 4 16 40 356 347 80 314 332 15 22 29 93 35 93 346 352 80 106 297 262 252 288 25 24 353 321 308 305 350 329 276 313 7 51 77 81 54 99 137 159 98 41 328 289 96 50 315 331 344 342 356 16 16 7 14 31 42 44 38 34 35
52 56 46 42 41 31 35 38 30 14 356 358 359 329 164 56 60 57 50 134 311 343 289 10 9 334 360 13 351 355 14 359 298 315 331 14 14 27 90 15 61 80 2 38 77 338 296 279 270 96 30 329 303 298 283 285 290 290 338 45 44 44 58 32 30 105 86 47 2 314 295 126 101 297 298 314 295 294 327 27 358 352 12 27 41 42 32 31
57 61 53 50 48 37 33 19 10 2 353 359 12 9 9 10 63 87 79 275 279 327 359 16 354 354 16 31 358 343 2 333 322 354 7 1 13 23 35 16 24 41 9 12 14 346 338 355 357 291 333 346 326 325 330 325 333 358 31 59 39 357 15 19 356 35 63 24 276 283 331 54 83 236 233 263 278 289 322 48 33 352 359 2 29 42 31 27
63 65 55 49 47 40 35 7 358 1 358 15 63 53 57 19 24 88 288 330 341 322 1 349 323 356 1 16 15 346 343 349 355 26 27 19 30 31 40 33 349 11 17 2 352 347 342 347 337 325 349 20 9 351 348 348 0 14 20 51 62 1 12 19 342 8 56 278 260 280 342 38 347 251 228 253 279 286 313 342 81 20 357 352 5 20 21 26
66 65 52 42 38 29 23 11 359 3 12 72 81 55 75 70 27 252 293 335 10 323 350 340 327 353 359 18 9 342 359 5 353 24 45 59 59 45 54 43 13 49 44 345 358 355 336 310 348 8 354 9 39 30 347 334 353 5 14 71 91 85 45 16 312 345 309 278 295 333 8 42 297 280 217 213 244 247 242 213 187 181 209 324 328 345 357 10
63 60 48 34 28 16 11 8 2 11 71 105 86 55 67 70 252 27 319 276 249 333 352 346 334 353 20 38 347 325 13 3 343 21 12 27 47 17 12 14 17 56 121 58 32 33 24 325 348 32 326 337 40 63 256 253 299 339 62 110 99 126 114 160 226 262 281 288 303 346 23 186 227 285 217 205 240 249 221 185 184 194 207 237 275 331 354 350
72 59 46 33 21 9 8 7 4 26 131 105 65 64 84 134 229 150 288 253 256 343 332 343 18 30 6 352 332 335 10 325 356 36 11 19 52 3 353 351 0 28 103 59 352 76 72 275 276 296 249 349 19 306 263 192 267 301 96 87 46 158 140 146 183 190 222 308 317 337 268 217 220 280 258 236 291 286 274 305 1 308 281 312 330 318 321 326
103 68 45 29 16 8 9 5 1 22 153 91 62 63 141 191 196 152 171 208 143 97 327 342 36 51 346 319 336 346 346 333 18 44 11 14 22 331 351 313 339 22 77 110 16 1 41 274 288 332 318 33 32 304 325 45 345 304 41 54 279 212 139 123 298 296 84 52 295 300 266 283 320 292 258 227 255 277 273 265 265 270 285 310 306 288 294 309
103 84 51 24 13 9 5 357 356 25 116 77 78 98 207 202 190 173 162 143 156 127 84 26 19 47 335 309 321 330 342 346 25 50 20 359 350 351 359 293 301 44 3 163 119 284 155 284 296 0 339 311 336 244 351 39 82 75 31 300 279 51 88 96 30 357 28 40 285 307 294 290 336 303 258 221 232 254 251 242 246 265 281 279 265 266 268 267
9 101 61 19 9 7 1 352 351 112 82 65 80 125 155 149 203 207 228 120 153 76 82 128 177 111 179 215 305 319 349 355 9 39 44 341 1 81 39 302 293 29 300 210 88 240 191 304 295 218 244 294 333 64 12 344 26 87 87 289 63 69 16 17 66 25 14 352 302 310 313 267 208 223 229 212 222 232 234 240 245 254 255 252 261 263 263 269
349 87 46 6 3 4 359 351 358 83 68 71 99 156 155 208 272 257 264 289 125 64 84 174 197 90 159 165 252 304 1 17 359 30 71 32 23 107 103 293 300 337 322 106 105 259 196 70 284 270 266 299 347 51 28 326 340 12 34 17 51 116 141 33 62 98 134 333 306 319 332 286 224 217 196 205 216 211 217 230 227 232 236 236 247 252 255 261
351 65 8 351 358 359 359 12 42 56 60 94 161 164 106 240 270 271 279 326 95 83 108 194 167 114 191 208 224 267 27 29 338 19 84 5 22 43 52 281 296 323 345 39 77 292 33 90 249 292 335 1 359 30 90 303 329 357 31 24 0 11 83 85 37 88 120 136 213 322 314 277 247 209 188 205 212 200 202 210 214 226 232 233 238 240 246 248
21 52 294 343 355 348 10 43 47 52 78 99 122 114 116 203 226 302 316 6 92 168 177 150 149 145 175 195 204 196 158 48 247 61 297 284 79 260 253 224 244 307 3 24 25 44 57 101 224 300 339 1 246 252 198 211 189 138 98 86 127 357 70 81 335 322 76 135 169 157 280 273 261 213 199 202 198 200 202 196 206 223 224 230 241 236 234 233
53 71 271 343 351 344 58 60 38 63 99 97 63 158 200 154 114 2 323 15 68 116 56 103 139 143 153 187 215 174 158 178 186 166 211 222 190 194 219 205 214 264 62 30 324 297 122 94 130 276 284 269 271 288 6 258 169 133 120 121 139 129 99 115 202 271 333 357 168 132 254 271 265 230 216 205 191 196 196 188 200 221 223 226 237 242 245 241
74 162 268 350 346 325 88 63 9 42 72 254 270 200 309 84 99 353 322 352 32 61 29 74 152 134 163 200 162 150 174 193 186 192 202 221 229 207 204 204 191 96 70 65 305 333 75 72 2 289 300 314 309 322 9 5 55 108 295 77 127 146 127 140 172 172 197 272 159 116 260 267 278 280 238 211 203 200 197 196 199 210 227 230 233 242 247 248
94 227 270 354 349 215 119 91 134 102 97 319 27 4 338 71 154 75 284 270 259 132 98 100 178 166 173 122 108 165 224 241 201 230 203 198 233 207 203 217 161 120 140 195 203 3 27 101 63 6 344 343 345 346 342 339 356 213 260 263 172 144 106 94 98 91 339 236 161 144 245 250 276 319 306 220 219 219 218 214 204 206 222 230 231 236 238 243
23 254 265 353 17 63 110 160 145 131 147 104 76 120 91 44 206 174 188 230 217 141 142 303 61 92 97 71 57 59 285 321 242 265 318 230 260 234 209 227 179 152 196 185 133 110 140 184 118 89 1 309 313 300 289 304 307 274 260 226 183 146 120 105 65 91 246 238 163 169 231 256 284 301 281 243 224 230 241 240 234 230 225 227 231 230 231 235
63 73 286 340 20 54 66 52 105 115 154 144 122 164 153 154 276 222 150 187 201 134 104 335 73 81 81 106 56 344 304 322 338 325 288 253 265 289 231 213 195 188 167 103 71 87 99 233 202 178 207 227 242 255 264 12 301 272 263 234 221 229 203 131 119 169 204 197 204 224 234 267 280 265 241 244 231 227 244 246 246 247 239 237 236 229 230 228
84 127 154 349 1 35 35 15 61 98 161 155 139 167 164 168 246 331 141 207 201 115 78 333 173 160 191 183 162 266 281 325 345 305 250 242 260 305 277 175 190 207 166 97 38 85 93 298 242 207 232 249 265 278 290 306 272 260 263 250 231 236 219 171 191 207 159 128 258 248 210 241 267 255 213 231 238 230 236 239 240 245 242 240 236 231 235 234
56 156 144 105 275 47 54 24 90 96 112 122 112 147 155 160 183 191 197 241 17 118 149 282 240 208 193 176 164 174 210 306 300 248 237 255 273 321 344 129 251 222 139 66 359 99 115 259 248 208 252 264 270 274 276 276 263 257 262 257 239 219 202 205 222 209 159 197 247 247 175 230 262 266 231 225 228 229 235 233 233 239 240 239 236 231 232 233
71 126 66 35 141 160 124 80 105 105 114 107 88 160 165 175 198 203 151 102 343 277 184 209 246 220 193 175 156 156 191 206 254 244 216 174 207 299 10 263 283 8 83 66 348 81 123 246 258 264 279 272 262 260 262 269 273 268 261 255 243 226 215 222 235 224 206 232 251 257 263 265 267 267 262 256 240 235 248 250 244 244 239 233 229 226 229 231
131 156 161 57 69 113 66 48 95 104 84 56 280 225 181 184 201 203 151 149 176 237 187 211 236 208 188 190 176 200 216 194 196 232 187 156 215 220 195 215 186 56 68 111 337 311 254 265 310 38 313 287 279 282 272 265 274 278 273 263 244 227 224 227 234 231 222 239 252 255 263 270 267 260 261 268 256 236 250 256 252 249 239 229 226 226 230 233
106 135 145 108 82 115 111 73 108 112 71 262 224 217 204 206 201 183 192 196 177 166 179 200 208 174 169 191 207 232 234 199 197 210 175 165 188 179 188 210 156 137 164 173 163 305 205 270 2 47 345 285 299 360 326 296 290 279 274 269 251 223 215 220 220 216 210 221 238 243 242 255 262 258 244 253 241 225 240 247 246 247 238 225 226 231 234 233
108 100 110 102 100 158 144 128 114 133 208 223 202 204 218 216 189 166 187 229 187 181 190 185 168 141 153 199 221 235 233 205 207 208 178 176 188 173 181 190 160 154 166 166 158 133 147 155 12 56 308 274 286 334 326 324 318 281 261 262 244 204 198 213 225 221 214 207 206 213 224 242 256 247 230 245 233 221 235 239 236 240 235 227 231 236 236 234